TITAN 3C TRANSTAGE DEB, 1859

Orbit data source: Space-Track

TITAN 3C TRANSTAGE DEB, 1859 is space debris in LEO originally from a launch on Fri, 15 Oct 1965 UTC launched from the Air Force Eastern Test Range (AFETR). Debris objects in space refer to the collection of defunct objects orbiting the Earth. Examples of debris include non-operational satellites, rocket bodies, and fragments generated from explosions, collisions, or faulty payload assembly.

Loading next visibility...
Identifier
1859, 1965-082ES
Orbit
LEO
Country
Flag of USUS
Related business
Manufacturer
Unknown
Mission
Spacecraft
Bus & Motor
Unknown
Mass
Unknown
Launch date (UTC)
1965-10-15 (60 years ago)
Launch vehicle
Unknown
Launch site
Air Force Eastern Test Range (AFETR)
Object type
Payload
Rocket body
Debris
Shape & HBR
Unknown shape, 0.3 m
Radar Cross Section
Medium (>0.1 m² and <1 m²)

Expand to show TLE details & history
Last TLE update: 1 day ago

TLE from 1 day ago
0 TITAN 3C TRANSTAGE DEB
1 01859U 65082ES  25340.03667944  .00001388  00000-0  34236-3 0  9998
2 01859  32.1245 204.3536 0066597 102.9524 257.8564 14.48901900159032
Epoch: 2025-12-06T00:52Z
TLE epoch observation values (Epoch: 2025-12-06T00:52:49.103Z)
Latitude
-0.00003°
Longitude
116.07878°
Altitude
738.15 km
Speed
7.483 km/s
True Right ascension
13h 37m 24s
True Declination
0° 00' 00"
Sunlit
Object was in daylight at epoch
Visualization orbit readout
Latitude
Unknown
Longitude
Unknown
Altitude
Unknown
Speed
Unknown
Apparent Right ascension
Unknown
Apparent Declination
Unknown
Sunlit
N/A
Visualization observer readout
Local Sidereal Time
02:23:02
Azimuth
Unknown
Elevation
Unknown
Doppler factor
Unknown
Orbital elements
Apogee altitude
780.168 km
Perigee altitude
685.455 km
Semi-major axis
7,110.949 km
Eccentricity
0.00666
Inclination
32.1245°
RAAN
204.3536°
Arg. of periapsis
102.9524°
True anomaly
257.11166°
Mean anomaly
257.8564°
Eccentric anomaly
257.4839°
Mean motion
3.61953 °/min
Orbital period
99.46 mins
BSTAR
0.00034236

Documentation

Showing up to 5 results
|